VA7IM-13 Weather Reports


time (UTC)temp
F
wind
direction
speed
knots
gust
knots
rain 1hr
in
rain 24hr
in
rain mn
in
humidity
%
barometer
mb
20260504160159 69 45 4.3 5.2 0.00 0.00 0.00
20260504150658 69 135 0.0 0.0 0.00 0.00 0.00
20260504150157 68 180 0.0 0.0 0.00 0.00 0.00
20260504141157 0 0.0 0.0 0.00 0.00 0.00
20260504140658 0 0.0 0.0 0.00 0.00 0.00
20260504140159 55 158 0.0 0.0 0.00 0.00 0.00
20260504130657 53 158 0.0 0.0 0.00 0.00 0.00
20260504100158 56 158 0.0 0.0 0.00 0.00 0.00
20260504081659 59 180 0.0 0.0 0.00 0.00 0.00
20260504081158 0 0.0 0.0 0.00 0.00 0.00
20260504080657 60 180 0.0 0.0 0.00 0.00 0.00
20260504080158 60 158 0.0 0.0 0.00 0.00 0.00
20260504070159 0 0.0 0.0 0.00 0.00 0.00
20260504060158 64 158 0.0 0.0 0.00 0.00 0.00
20260504050659 66 293 0.0 0.0 0.00 0.00 0.00
20260504045658 66 180 0.0 0.0 0.00 0.00 0.00
20260504045157 67 180 0.0 0.0 0.00 0.00 0.00
20260504044659 67 180 0.0 0.0 0.00 0.00 0.00
20260504044159 68 180 0.0 0.0 0.00 0.00 0.00
20260504043659 68 158 0.0 0.0 0.00 0.00 0.00
20260504043158 68 158 0.0 0.0 0.00 0.00 0.00
20260504042702 68 135 0.0 0.0 0.00 0.00 0.00
20260504042158 68 158 0.0 0.0 0.00 0.00 0.00
20260504041657 69 180 0.0 0.0 0.00 0.00 0.00
20260504041158 69 180 0.0 0.0 0.00 0.00 0.00
20260504040659 70 158 0.0 0.0 0.00 0.00 0.00
20260504040158 70 180 0.0 0.0 0.00 0.00 0.00
20260504035657 71 180 0.0 0.0 0.00 0.00 0.00
20260504035158 71 90 0.0 0.0 0.00 0.00 0.00
20260504034659 72 45 0.0 0.0 0.00 0.00 0.00
20260504034158 73 180 0.0 0.0 0.00 0.00 0.00
20260504033657 74 90 0.0 0.0 0.00 0.00 0.00
20260504033158 74 158 0.0 0.0 0.00 0.00 0.00
20260504032659 75 113 0.0 0.0 0.00 0.00 0.00
20260504032159 0 0.0 0.0 0.00 0.00 0.00
20260504031659 0 0.0 0.0 0.00 0.00 0.00
20260504031158 76 158 0.9 1.7 0.00 0.00 0.00
20260504030657 76 270 1.7 2.6 0.00 0.00 0.00
20260504030159 77 0.0 0.0 0.00 0.00 0.00
20260504022659 0 0.0 0.0 0.00 0.00 0.00
20260504022159 0 225 2.6 2.6 0.00 0.00 0.00
20260504015657 0 180 3.5 3.5 0.00 0.00 0.00
20260504013659 0 248 6.1 6.1 0.00 0.00 0.00
20260504005158 0 3.5 3.5 0.00 0.00 0.00
20260504004159 0 4.3 4.3 0.00 0.00 0.00
20260504003159 0 90 3.5 3.5 0.00 0.00 0.00
20260504001159 0 180 4.3 4.3 0.00 0.00 0.00
20260504000158 0 5.2 5.2 0.00 0.00 0.00
20260503235658 87 23 4.3 6.1 0.00 0.00 0.00
20260503235159 88 225 2.6 3.5 0.00 0.00 0.00
20260503234658 87 45 2.6 5.2 0.00 0.00 0.00
20260503234157 86 23 4.3 7.0 0.00 0.00 0.00
20260503233657 87 0 3.5 4.3 0.00 0.00 0.00
20260503233158 87 158 3.5 3.5 0.00 0.00 0.00
20260503232659 87 225 2.6 3.5 0.00 0.00 0.00
20260503232158 0 1.7 3.5 0.00 0.00 0.00
20260503231657 87 338 3.5 6.1 0.00 0.00 0.00
20260503231157 87 23 6.1 8.7 0.00 0.00 0.00
20260503230658 87 45 2.6 3.5 0.00 0.00 0.00
20260503230158 88 270 3.5 5.2 0.00 0.00 0.00
20260503225657 0 3.5 3.5 0.00 0.00 0.00
20260503225157 84 225 4.3 7.0 0.00 0.00 0.00
20260503224658 85 248 3.5 5.2 0.00 0.00 0.00
20260503224159 87 248 4.3 5.2 0.00 0.00 0.00
20260503223658 87 270 3.5 7.0 0.00 0.00 0.00
20260503223157 87 248 4.3 5.2 0.00 0.00 0.00
20260503222658 0 4.3 5.2 0.00 0.00 0.00
20260503222159 86 225 2.6 5.2 0.00 0.00 0.00
20260503221657 86 270 7.8 7.8 0.00 0.00 0.00
20260503221157 85 225 4.3 5.2 0.00 0.00 0.00
20260503220657 87 270 4.3 7.8 0.00 0.00 0.00
20260503220159 86 113 3.5 3.5 0.00 0.00 0.00
20260503215658 86 203 2.6 3.5 0.00 0.00 0.00
20260503215157 0 4.3 7.0 0.00 0.00 0.00
20260503214657 86 248 2.6 3.5 0.00 0.00 0.00
20260503214157 83 158 3.5 5.2 0.00 0.00 0.00
20260503213658 85 45 2.6 3.5 0.00 0.00 0.00
20260503213159 85 338 2.6 4.3 0.00 0.00 0.00
20260503212659 84 270 1.7 3.5 0.00 0.00 0.00
20260503212158 84 90 0.9 2.6 0.00 0.00 0.00
20260503211657 84 90 5.2 7.0 0.00 0.00 0.00
20260503211157 83 225 3.5 3.5 0.00 0.00 0.00
20260503210659 84 225 4.3 5.2 0.00 0.00 0.00
20260503210159 82 203 5.2 5.2 0.00 0.00 0.00
20260503205159 82 248 3.5 6.1 0.00 0.00 0.00
20260503204659 83 315 5.2 6.1 0.00 0.00 0.00
20260503204158 84 4.3 11.3 0.00 0.00 0.00
20260503203658 83 315 4.3 6.1 0.00 0.00 0.00
20260503203159 83 0 2.6 3.5 0.00 0.00 0.00
20260503202658 82 113 1.7 3.5 0.00 0.00 0.00
20260503202158 83 225 2.6 3.5 0.00 0.00 0.00
20260503201657 0 2.6 3.5 0.00 0.00 0.00
20260503201158 82 0 3.5 6.1 0.00 0.00 0.00
20260503200659 81 225 0.9 2.6 0.00 0.00 0.00
20260503200158 81 23 4.3 6.1 0.00 0.00 0.00
20260503195658 80 68 2.6 3.5 0.00 0.00 0.00
20260503195158 81 23 4.3 6.1 0.00 0.00 0.00
20260503194658 82 113 0.9 2.6 0.00 0.00 0.00
20260503194159 82 45 2.6 3.5 0.00 0.00 0.00
20260503193659 82 113 2.6 3.5 0.00 0.00 0.00
20260503193158 0 0.9 2.6 0.00 0.00 0.00
20260503192657 81 90 1.7 3.5 0.00 0.00 0.00
20260503192158 79 225 0.9 3.5 0.00 0.00 0.00
20260503191658 80 203 0.9 2.6 0.00 0.00 0.00
20260503191159 79 68 1.7 2.6 0.00 0.00 0.00
20260503190659 77 3.5 7.0 0.00 0.00 0.00
20260503190158 78 0 3.5 5.2 0.00 0.00 0.00
20260503185657 76 225 5.2 7.8 0.00 0.00 0.00
20260503185157 77 225 4.3 5.2 0.00 0.00 0.00
20260503184657 0 3.5 4.3 0.00 0.00 0.00
20260503184159 74 113 5.2 7.0 0.00 0.00 0.00
20260503183658 0 5.2 7.8 0.00 0.00 0.00
20260503182159 0 225 2.6 2.6 0.00 0.00 0.00
20260503174159 75 0.0 0.0 0.00 0.00 0.00